Location: Maiden
(35.5760°N, 81.2120°W)
Time: 06:52:11
(UTC-04:00)

ISS - Visible Passes

Search period start: 29 June 2016 00:00
Search period end: 09 July 2016 00:00
Orbit: 402 x 403 km, 51.6° (Epoch: 28 June)

Date Brightness Start Highest point End Pass type
(mag) Time Alt. Az. Time Alt. Az. Time Alt. Az.
05 Jul -1.2 05:37:12 10° S 05:39:40 20° SE 05:42:09 10° E visible
07 Jul -2.9 05:27:22 12° SSW 05:30:18 55° SE 05:33:30 10° ENE visible
08 Jul -1.7 04:36:46 22° SSE 04:37:36 25° SE 04:40:20 10° ENE visible
